Find Starlink 31718

NORAD ID: 59556 Int'l Des: 2024-074 Owner: SPXS Country: US Constellation: starlink operational
LEOCIRCULAR

Live Position

Loading 3D Globe...

About Starlink 31718

Description loading...

Upcoming Passes

Passes for default location (London). Set your location on the main map for personalized predictions.

Altitude History

Loading altitude history...

Two-Line Element Set

1 59556U 24074Y 26110.35261903 -.00000952 00000-0 -25084-4 0 9997
2 59556 43.0008 108.4455 0001062 278.7818 81.2913 15.27568425112388
Epoch: Apr 20, 2026 • Age: 14 hours

Current Status

Altitude 482.2 km
Velocity 7.63 km/s
Sub-Earth Point 8.88°N, 73.97°W
Launch Date Apr 18, 2024
Age 2 years
Type internet

Technical Details

Classification Payload
Mass 730.00 kg
Dry Mass 700.00 kg
Total Mass 730.00 kg
Length 0.30 m
Diameter 4.10 m
Span 29.00 m
Shape Box + pan
Manufacturer SPXS
Bus Type Starlink V2M
Phase Status In Orbit
Owner/State SPXS/US

Most Searched